When you browse on this site, cookies collect data to enhance your experience and personalize the content and advertising you see.
Visit our Privacy Policy to learn more. By continuing to use the site, you agree to this use of cookies and data.
  • In United Kingdom
  • List of Countries
  • For 7 days
  • Water Temperature
  • Weather Map
  • Weather Widgets
  • user-avatar
    Login

    Hourly Weather Sinemorec

    Today, 22 November, Friday

    Time Temperature Precipitation Wind Pressure Humidity
    00:00 +12°C° 0.1 mm 8 mps 762 mmHg 85%
    01:00 +12°C° 0.1 mm 8 mps 761 mmHg 85%
    02:00 +12°C° 0.1 mm 8 mps 761 mmHg 85%
    03:00 +11°C° 0.1 mm 8 mps 761 mmHg 85%
    04:00 +11°C° 0.1 mm 8 mps 761 mmHg 85%
    05:00 +11°C° 0.1 mm 8 mps 761 mmHg 85%
    06:00 +11°C° 0.1 mm 8 mps 761 mmHg 85%
    07:00 +11°C° 0.1 mm 8 mps 761 mmHg 85%
    08:00 +10°C° 0.1 mm 9 mps 761 mmHg 85%
    09:00 +10°C° 0.1 mm 9 mps 762 mmHg 84%
    10:00 +10°C° 0.1 mm 8 mps 762 mmHg 83%
    11:00 +10°C° 0.1 mm 8 mps 762 mmHg 82%
    12:00 +10°C° 0.1 mm 8 mps 762 mmHg 82%
    13:00 +10°C° 0.1 mm 8 mps 762 mmHg 82%
    14:00 +10°C° 0.1 mm 7 mps 761 mmHg 82%
    15:00 +10°C° 0.1 mm 7 mps 761 mmHg 82%
    16:00 +10°C° 0.1 mm 7 mps 761 mmHg 83%
    17:00 +10°C° 0.1 mm 7 mps 762 mmHg 83%
    18:00 +10°C° 0.1 mm 6 mps 762 mmHg 83%
    19:00 +10°C° 0.1 mm 6 mps 762 mmHg 82%
    20:00 +10°C° 0.1 mm 5 mps 762 mmHg 82%
    21:00 +10°C° 0.2 mm 5 mps 762 mmHg 82%
    22:00 +10°C° 0.2 mm 5 mps 762 mmHg 83%
    23:00 +12°C° 0.2 mm 5 mps 763 mmHg 84%

    Tomorrow, 23 November, Saturday

    Time Temperature Precipitation Wind Pressure Humidity
    00:00 +12°C° 0.3 mm 5 mps 762 mmHg 84%
    01:00 +10°C° 0.3 mm 5 mps 762 mmHg 84%
    02:00 +10°C° 0.3 mm 5 mps 762 mmHg 84%
    03:00 +10°C° 0.7 mm 5 mps 762 mmHg 87%
    04:00 +10°C° 0.7 mm 5 mps 762 mmHg 90%
    05:00 +10°C° 0.7 mm 6 mps 762 mmHg 92%
    06:00 +10°C° 1.1 mm 6 mps 762 mmHg 92%
    07:00 +11°C° 1.1 mm 6 mps 762 mmHg 92%
    08:00 +12°C° 1.1 mm 5 mps 763 mmHg 92%
    09:00 +12°C° 0.8 mm 5 mps 763 mmHg 91%
    10:00 +12°C° 0.8 mm 5 mps 763 mmHg 90%
    11:00 +12°C° 0.8 mm 4 mps 763 mmHg 89%
    12:00 +12°C° 0.5 mm 4 mps 762 mmHg 90%
    13:00 +12°C° 0.5 mm 5 mps 762 mmHg 90%
    14:00 +12°C° 0.5 mm 5 mps 762 mmHg 90%
    15:00 +12°C° 0.4 mm 5 mps 762 mmHg 90%
    16:00 +12°C° 0.4 mm 5 mps 762 mmHg 90%
    17:00 +12°C° 0.4 mm 5 mps 762 mmHg 91%
    18:00 +11°C° 0.4 mm 6 mps 762 mmHg 91%
    19:00 +11°C° 0.4 mm 6 mps 762 mmHg 91%
    20:00 +11°C° 0.4 mm 6 mps 762 mmHg 91%
    21:00 +11°C° 0.4 mm 6 mps 762 mmHg 91%
    22:00 +11°C° 0.4 mm 6 mps 762 mmHg 91%
    23:00 +11°C° 0.4 mm 6 mps 762 mmHg 91%

    Day after tomorrow, 24 November, Sunday

    Time Temperature Precipitation Wind Pressure Humidity
    00:00 +11°C° 0.3 mm 6 mps 762 mmHg 91%
    01:00 +11°C° 0.3 mm 6 mps 762 mmHg 91%
    02:00 +12°C° 0.3 mm 5 mps 762 mmHg 91%
    03:00 +12°C° 0.2 mm 5 mps 762 mmHg 91%
    04:00 +12°C° 0.2 mm 5 mps 762 mmHg 90%
    05:00 +10°C° 0.2 mm 5 mps 762 mmHg 89%
    06:00 +12°C° 0.1 mm 4 mps 762 mmHg 88%
    07:00 +12°C° 0.1 mm 4 mps 762 mmHg 87%
    08:00 +12°C° 0.1 mm 4 mps 762 mmHg 85%
    09:00 +12°C° 0 mm 4 mps 762 mmHg 84%
    10:00 +12°C° 0 mm 4 mps 762 mmHg 82%
    11:00 +13°C° 0 mm 4 mps 762 mmHg 81%
    12:00 +13°C° 0 mm 4 mps 761 mmHg 81%
    13:00 +13°C° 0 mm 4 mps 761 mmHg 81%
    14:00 +13°C° 0 mm 4 mps 761 mmHg 81%
    15:00 +13°C° 0 mm 4 mps 761 mmHg 83%
    16:00 +13°C° 0 mm 4 mps 760 mmHg 86%
    17:00 +12°C° 0 mm 4 mps 760 mmHg 88%
    18:00 +13°C° 0.1 mm 4 mps 760 mmHg 89%
    19:00 +13°C° 0.1 mm 4 mps 760 mmHg 89%
    20:00 +13°C° 0.1 mm 4 mps 760 mmHg 90%
    21:00 +13°C° 0.1 mm 4 mps 760 mmHg 91%
    22:00 +12°C° 0.1 mm 3 mps 760 mmHg 92%
    23:00 +12°C° 0.1 mm 3 mps 760 mmHg 93%

    25 November, Monday

    Time Temperature Precipitation Wind Pressure Humidity
    00:00 +13°C° 0 mm 2 mps 759 mmHg 93%
    01:00 +13°C° 0 mm 2 mps 759 mmHg 93%
    02:00 +13°C° 0 mm 2 mps 759 mmHg 93%
    03:00 +13°C° 0 mm 2 mps 759 mmHg 93%
    04:00 +13°C° 0 mm 2 mps 758 mmHg 93%
    05:00 +13°C° 0 mm 2 mps 758 mmHg 94%
    06:00 +13°C° 0 mm 2 mps 758 mmHg 94%
    07:00 +13°C° 0 mm 2 mps 758 mmHg 94%
    08:00 +13°C° 0 mm 2 mps 758 mmHg 94%
    09:00 +13°C° 0.1 mm 3 mps 758 mmHg 90%
    10:00 +14°C° 0.1 mm 4 mps 758 mmHg 86%
    11:00 +15°C° 0.1 mm 5 mps 757 mmHg 82%
    12:00 +15°C° 0.2 mm 5 mps 757 mmHg 83%
    13:00 +15°C° 0.2 mm 6 mps 756 mmHg 84%
    14:00 +15°C° 0.2 mm 7 mps 756 mmHg 85%
    15:00 +15°C° 0.1 mm 7 mps 756 mmHg 86%
    16:00 +14°C° 0.1 mm 7 mps 756 mmHg 87%
    17:00 +14°C° 0.1 mm 7 mps 756 mmHg 89%
    18:00 +14°C° 0.1 mm 7 mps 756 mmHg 88%
    19:00 +14°C° 0.1 mm 7 mps 756 mmHg 88%
    20:00 +14°C° 0.1 mm 7 mps 756 mmHg 88%
    21:00 +14°C° 0.1 mm 7 mps 756 mmHg 88%
    22:00 +14°C° 0.1 mm 7 mps 756 mmHg 88%
    23:00 +13°C° 0.1 mm 8 mps 755 mmHg 88%

    26 November, Tuesday

    Time Temperature Precipitation Wind Pressure Humidity
    00:00 +12°C° 0.1 mm 7 mps 755 mmHg 87%
    01:00 +12°C° 0.1 mm 7 mps 755 mmHg 87%
    02:00 +12°C° 0.1 mm 7 mps 755 mmHg 87%
    03:00 +12°C° 0.1 mm 7 mps 755 mmHg 87%
    04:00 +12°C° 0.1 mm 7 mps 755 mmHg 87%
    05:00 +12°C° 0.1 mm 8 mps 755 mmHg 87%
    06:00 +12°C° 0.2 mm 8 mps 755 mmHg 86%
    07:00 +12°C° 0.2 mm 8 mps 755 mmHg 86%
    08:00 +12°C° 0.2 mm 8 mps 756 mmHg 86%
    09:00 +12°C° 0.1 mm 8 mps 756 mmHg 85%
    10:00 +12°C° 0.1 mm 8 mps 756 mmHg 84%
    11:00 +12°C° 0.1 mm 8 mps 756 mmHg 82%
    12:00 +12°C° 0.1 mm 8 mps 756 mmHg 83%
    13:00 +12°C° 0.1 mm 8 mps 756 mmHg 84%
    14:00 +12°C° 0.1 mm 7 mps 756 mmHg 84%
    15:00 +11°C° 0.1 mm 7 mps 756 mmHg 85%
    16:00 +11°C° 0.1 mm 7 mps 757 mmHg 85%
    17:00 +11°C° 0.1 mm 7 mps 757 mmHg 86%
    18:00 +11°C° 0.1 mm 6 mps 758 mmHg 86%
    19:00 +10°C° 0.1 mm 6 mps 758 mmHg 85%
    20:00 +10°C° 0.1 mm 6 mps 758 mmHg 85%
    21:00 +10°C° 0 mm 5 mps 758 mmHg 86%
    22:00 +9°C° 0 mm 5 mps 758 mmHg 87%
    23:00 +10°C° 0 mm 4 mps 759 mmHg 88%

    27 November, Wednesday

    Time Temperature Precipitation Wind Pressure Humidity
    00:00 +10°C° 0 mm 3 mps 759 mmHg 88%
    01:00 +9°C° 0 mm 3 mps 759 mmHg 88%
    02:00 +9°C° 0 mm 2 mps 759 mmHg 89%
    03:00 +9°C° 0 mm 2 mps 759 mmHg 89%
    04:00 +9°C° 0 mm 2 mps 759 mmHg 89%
    05:00 +9°C° 0 mm 2 mps 759 mmHg 89%
    06:00 +10°C° 0 mm 1 mps 759 mmHg 88%
    07:00 +10°C° 0 mm 1 mps 759 mmHg 87%
    08:00 +10°C° 0 mm 1 mps 759 mmHg 86%
    09:00 +11°C° 0 mm 1 mps 759 mmHg 81%
    10:00 +13°C° 0 mm 1 mps 759 mmHg 75%
    11:00 +14°C° 0 mm 1 mps 759 mmHg 69%
    12:00 +15°C° 0 mm 2 mps 759 mmHg 68%
    13:00 +15°C° 0 mm 2 mps 759 mmHg 67%
    14:00 +16°C° 0 mm 2 mps 758 mmHg 65%
    15:00 +15°C° 0 mm 2 mps 759 mmHg 70%
    16:00 +13°C° 0 mm 3 mps 759 mmHg 74%
    17:00 +12°C° 0 mm 3 mps 759 mmHg 79%
    18:00 +12°C° 0 mm 3 mps 759 mmHg 80%
    19:00 +11°C° 0 mm 3 mps 759 mmHg 80%
    20:00 +11°C° 0 mm 3 mps 759 mmHg 81%
    21:00 +11°C° 0 mm 3 mps 759 mmHg 83%
    22:00 +10°C° 0 mm 3 mps 759 mmHg 85%
    23:00 +10°C° 0 mm 3 mps 759 mmHg 87%
    Show more